QPF
0.00 0.00 0.00 0.00 0.00 0.00 0.00 0.00 0.00 0.00 0.00 0.00 0.00 0.00 0.00 0.00 0.00 0.00 0.01 0.01 0.02 0.03
0.00 0.00 0.00 0.00 0.00 0.00 0.00 0.00 0.00 0.00 0.00 0.00 0.00 0.00 0.00 0.00 0.00 0.01 0.01 0.02 0.02 0.03
0.00 0.00 0.00 0.00 0.00 0.00 0.00 0.00 0.00 0.00 0.00 0.00 0.00 0.00 0.00 0.01 0.01 0.01 0.00 0.00 0.00 0.01
0.00 0.00 0.00 0.00 0.00 0.00 0.00 0.00 0.00 0.00 0.00 0.00 0.00 0.00 0.01 0.01 0.01 0.01 0.01 0.01 0.01 0.01
0.00 0.00 0.00 0.00 0.00 0.00 0.00 0.00 0.00 0.00 0.00 0.00 0.00 0.00 0.00 0.00 0.00 0.01 0.01 0.01 0.01 0.01
0.00 0.00 0.00 0.00 0.00 0.00 0.00 0.00 0.00 0.00 0.00 0.00 0.00 0.00 0.00 0.00 0.00 0.00 0.01 0.01 0.00 0.00
0.00 0.00 0.00 0.00 0.00 0.00 0.00 0.00 0.00 0.00 0.00 0.00 0.00 0.00 0.00 0.00 0.00 0.00 0.00 0.00 0.00 0.00
0.00 0.00 0.00 0.00 0.00 0.00 0.00 0.00 0.00 0.00 0.00 0.00 0.00 0.00 0.00 0.00 0.00 0.00 0.00 0.00 0.00 0.00
0.00 0.00 0.00 0.00 0.00 0.00 0.00 0.00 0.00 0.00 0.00 0.00 0.00 0.00 0.00 0.00 0.00 0.00 0.00 0.00 0.00 0.01
0.00 0.00 0.00 0.00 0.00 0.00 0.00 0.00 0.00 0.00 0.00 0.00 0.00 0.00 0.00 0.00 0.00 0.00 0.00 0.00 0.00 0.00
0.00 0.00 0.00 0.00 0.00 0.00 0.00 0.00 0.00 0.00 0.00 0.00 0.00 0.00 0.00 0.00 0.00 0.00 0.00 0.00 0.01 0.01
0.00 0.00 0.00 0.00 0.00 0.00 0.00 0.00 0.00 0.00 0.00 0.00 0.00 0.00 0.00 0.00 0.00 0.00 0.00 0.00 0.01 0.01
0.00 0.00 0.00 0.00 0.00 0.00 0.00 0.00 0.00 0.00 0.00 0.00 0.00 0.00 0.00 0.00 0.00 0.00 0.00 0.00 0.01 0.02
0.00 0.00 0.00 0.00 0.00 0.00 0.00 0.00 0.00 0.00 0.00 0.00 0.00 0.00 0.00 0.00 0.00 0.00 0.00 0.00 0.00 0.01
MSLP
1013.18 1013.26 1013.68 1014.02 1014.29 1014.50 1014.64 1014.70 1014.81 1014.93 1014.81 1014.65 1014.47 1014.23 1013.96 1013.62 1013.13 1012.63 1012.10 1011.56 1011.04 1010.22
1013.20 1013.51 1013.69 1014.14 1014.44 1014.51 1014.70 1014.71 1014.78 1014.83 1014.64 1014.38 1014.16 1013.89 1013.58 1013.12 1012.64 1012.27 1011.73 1011.23 1010.73 1010.43
1013.19 1013.67 1014.01 1014.24 1014.34 1014.57 1014.70 1014.75 1014.73 1014.64 1014.51 1014.45 1014.40 1014.13 1013.77 1013.12 1012.45 1011.76 1011.19 1010.88 1010.63 1010.38
1013.25 1013.69 1014.04 1014.21 1014.38 1014.42 1014.59 1014.62 1014.55 1014.72 1014.85 1014.57 1014.20 1013.85 1013.27 1012.75 1012.21 1011.60 1010.74 1010.27 1009.88 1009.51
1013.31 1013.75 1014.02 1014.13 1014.25 1014.45 1014.53 1014.47 1014.48 1014.52 1014.34 1014.00 1013.74 1013.40 1013.15 1012.73 1012.15 1011.50 1010.90 1010.42 1009.85 1009.11
1013.27 1013.66 1013.87 1014.09 1014.37 1014.55 1014.66 1014.62 1014.64 1014.53 1014.28 1014.03 1013.55 1013.41 1013.17 1012.52 1011.81 1011.23 1010.56 1009.98 1009.43 1008.89
1013.24 1013.58 1013.95 1014.36 1014.58 1014.66 1014.69 1014.74 1014.62 1014.33 1014.12 1013.95 1013.55 1012.97 1012.88 1012.51 1011.76 1011.13 1010.37 1009.69 1009.12 1008.51
1013.29 1013.71 1014.21 1014.50 1014.62 1014.56 1014.53 1014.55 1014.43 1014.36 1014.09 1013.91 1013.54 1012.91 1012.68 1012.22 1011.46 1010.57 1009.57 1008.56 1008.06 1007.28
1013.41 1013.97 1014.25 1014.44 1014.47 1014.53 1014.44 1014.36 1014.49 1014.34 1014.21 1013.50 1013.10 1012.73 1012.37 1011.68 1010.85 1009.68 1008.73 1007.70 1006.98 1006.40
1013.74 1014.18 1014.52 1014.57 1014.50 1014.52 1014.41 1014.40 1014.51 1014.08 1013.74 1013.14 1012.72 1012.20 1011.82 1010.91 1010.30 1008.95 1008.11 1007.26 1006.49 1005.62
1013.50 1014.04 1014.31 1014.58 1014.59 1014.57 1014.56 1014.41 1014.34 1013.83 1013.34 1012.82 1012.40 1012.07 1011.29 1010.27 1009.59 1008.30 1007.63 1007.16 1006.36 1005.37
1013.35 1013.64 1014.01 1014.46 1014.59 1014.57 1014.42 1014.11 1013.90 1013.37 1013.04 1012.86 1012.28 1011.61 1010.90 1010.50 1008.91 1008.46 1007.54 1006.94 1006.09 1005.26
1013.25 1013.52 1014.05 1014.39 1014.35 1014.03 1013.78 1013.36 1012.97 1012.98 1012.91 1012.80 1012.00 1011.43 1011.08 1010.27 1009.06 1008.39 1007.55 1006.57 1006.25 1005.37
1013.16 1013.50 1013.77 1013.95 1013.92 1013.48 1013.15 1012.94 1012.69 1012.49 1012.31 1011.75 1011.96 1011.46 1011.08 1010.17 1009.60 1008.97 1007.86 1007.13 1006.52 1005.73
Thickness
5620 5620 5617 5614 5610 5606 5602 5599 5595 5590 5587 5584 5579 5573 5569 5564 5559 5554 5550 5545 5537 5532
5608 5607 5605 5599 5596 5593 5589 5587 5583 5579 5576 5571 5564 5560 5554 5550 5545 5537 5531 5524 5514 5503
5597 5593 5589 5586 5584 5580 5578 5574 5570 5566 5561 5554 5547 5541 5536 5533 5529 5523 5514 5502 5491 5480
5584 5580 5577 5575 5572 5570 5566 5562 5558 5550 5541 5536 5533 5527 5522 5517 5510 5503 5497 5487 5476 5468
5572 5567 5565 5563 5560 5557 5553 5547 5541 5535 5531 5527 5520 5513 5505 5497 5490 5482 5472 5462 5453 5452
5561 5556 5554 5552 5547 5541 5536 5531 5525 5521 5517 5510 5504 5496 5486 5480 5473 5465 5455 5447 5439 5439
5548 5545 5541 5536 5531 5526 5522 5517 5512 5508 5501 5494 5489 5483 5471 5462 5455 5445 5437 5431 5429 5427
5535 5532 5526 5521 5517 5514 5510 5504 5499 5492 5486 5479 5471 5466 5455 5447 5440 5429 5428 5430 5426 5424
5521 5517 5513 5509 5506 5501 5496 5491 5484 5477 5470 5467 5459 5450 5441 5435 5425 5422 5424 5426 5422 5416
5506 5500 5496 5495 5492 5486 5483 5477 5468 5464 5459 5455 5448 5441 5430 5423 5414 5421 5421 5419 5416 5413
5495 5490 5485 5480 5475 5472 5466 5462 5454 5452 5449 5444 5437 5427 5421 5417 5415 5418 5416 5410 5408 5410
5485 5480 5473 5467 5462 5457 5453 5450 5445 5444 5438 5429 5424 5419 5415 5409 5415 5411 5409 5402 5404 5405
5471 5468 5461 5453 5450 5449 5446 5443 5441 5432 5425 5417 5415 5410 5406 5405 5409 5406 5402 5400 5397 5400
5459 5454 5448 5444 5441 5440 5439 5434 5430 5424 5418 5415 5405 5403 5400 5402 5398 5394 5393 5390 5390 5394